Location: Unnamed
(42.1164°N, 2.7652°E)
Time: 21:02:23
(UTC+02:00)

ISS - Pass Details

Date: 13 May 2021
Orbit: 417 x 422 km, 51.6° (Epoch: 14 June)

Event Time Altitude Azimuth Distance (km) Brightness Sun altitude
Rises 05:12:42 0° 306° (NW) 2,375 -0.1 -12.9°
Reaches altitude 10° 05:14:51 10° 312° (NW) 1,509 -1.0 -12.6°
Maximum altitude 05:18:10 51° 30° (NNE) 535 -2.8 -12.1°
Drops below altitude 10° 05:21:28 10° 108° (ESE) 1,504 -0.5 -11.6°
Sets 05:23:36 0° 113° (ESE) 2,366 0.5 -11.3°
